Showing default

CENTISPACE-1 S9, 62578

Orbit data source: Space-Track

CENTISPACE-1 S9, 62578 is a payload satellite owned by Centispace (CN) in LEO that was launched on Mon, 13 Jan 2025 UTC via a JIELONG-3 launch vehicle from the Yellow Sea Launch Area, China (YSLA). Payload-class satellites include a variety of spacecraft equipped with specific instruments for various scientific and technological missions. These include communications satellites like Starlink; space stations such as the ISS; scientific satellites like the Hubble; Earth observation satellites from companies like Planet Labs, Umbra, and HawkEye 360; GPS; miniature CubeSats for education and research; and military/defense satellites.

Loading next visibility...
Identifier
62578, 2025-007D
Orbit
LEO
Last TLE update
9 hours ago
Origin
Manufacturer
DFH Shenzhen
Mission
Operational Commercial Nav/Com
Bus & Motor
WK01, Unknown motor
Mass
140 kg wet, 140 kg dry
Launch date (UTC)
2025-01-13 (6 months ago)
Launch vehicle
JIELONG-3
Launch site
Yellow Sea Launch Area, China (YSLA)
Object type
Payload
Rocket body
Debris
Shape & HBR
Box + 2 Pan, 2 m
Radar Cross Section
0.833 m², Large (>1 m²)

Expand to show TLE details & history

TLE from 9 hours ago
0 CENTISPACE-1 S9
1 62578U 25007D   25184.16833115  .00000417  00000-0  91747-4 0  9994
2 62578  54.9810 149.2269 0010471 335.8725  24.1783 14.75283007 25252
Epoch: 2025-07-03T04:02Z
TLE epoch observation values (Epoch: 2025-07-03T04:02:23.811Z)
Latitude
0.00001°
Longitude
167.18874°
Altitude
638.614 km
Speed
7.543 km/s
True Right ascension
09h 56m 54s
True Declination
0° 00' 00"
Sunlit
Object was in daylight at epoch
Visualization orbit readout
Latitude
-55.10147°
Longitude
78.07939°
Altitude
660.619 km
Speed
7.528 km/s
Apparent Right ascension
09h 31m 25s
Apparent Declination
-71° 14' 57"
Sunlit
Object is in daylight
Visualization observer readout
Local Sidereal Time
01:10:37
Azimuth
156.613° SSE
Elevation
-48.567°
Doppler factor
1
Orbital elements
Apogee altitude
651.573 km
Perigee altitude
636.866 km
Semi-major axis
7,022.356 km
Eccentricity
0.00105
Inclination
54.981°
RAAN
149.2269°
Arg. of periapsis
335.8725°
True anomaly
Unknown
Mean anomaly
24.1783°
Eccentric anomaly
Unknown
Mean motion
3.68824 °/min
Orbital period
97.61 mins
BSTAR
0.000091747
Loading maneuver chart data...
Loading SW <> Apogee altitude chart data...
Loading historical data...
Loading historical data...
Loading historical data...
Loading historical data...
Loading historical data...
Loading historical data...
Loading historical data...

CENTISPACE-1 S9 Visibility forecast

Observer location: undefined°, undefined°

Span
Click to sort rows by Start time (UTC) header in descending order
Start Az.
Max El. time (UTC)
Max El. Az.
Max El.
End time (UTC)
End Az.
8 mins2025-07-03 23:41:48.343Z204.686° SW2025-07-03 23:45:48.343Z138.309° SSE37.245°2025-07-03 23:49:48.343Z58.83° ENE
6 mins2025-07-04 01:24:48.343Z276.756° WNW2025-07-04 01:27:48.343Z333.842° NNW27.022°2025-07-04 01:30:48.343Z24.843° NE
6 mins2025-07-04 06:33:48.343Z338.468° N2025-07-04 06:35:48.343Z20.305° NNE32.585°2025-07-04 06:39:48.343Z101.202° ESE
7 mins2025-07-04 08:14:48.343Z286.37° WNW2025-07-04 08:17:48.343Z228.03° WSW28.936°2025-07-04 08:21:48.343Z168.37° S
|